contact: severine.martini@mio.osupytheas.fr, dominique.lefevre@mio.osupytheas.fr
Project:EMSO Ligure-ouest http://www.emso-fr.org/EMSO-France
Sensor Optode, line 4330 Serial 272 
DOI : "https://doi.org/10.17882/97948" 
Title:EMSO Ligure Ouest : Data BathyDock capteur Optode - deploiement "2023-04-28"
Datetime,Profondeur,Latitude,Longitude,optode_type,serial,O2_concentration,O2_saturation,Temperature,Calibrated_Phase,Temp_Compensated_Phase,phase_blue_light,phase_red_light,Amplitude_blue_light,Amplitude_red_light,thermistor_bridge
time,m,degree_north,degree_east,1,1,umol.l-1,%,degree_C,degree,degree,degree,degree,mV,mV,mV
2024-01-04T00:00:07,2420,42.8014,5.9826,4330,272,186.432,57.105,13.315,36.039,36.619,41.206,4.587,295.7,545.4,291.1
2024-01-04T00:03:08,2420,42.8014,5.9826,4330,272,186.459,57.109,13.311,36.039,36.619,41.205,4.586,295.7,545.5,291.2
2024-01-04T00:06:07,2420,42.8014,5.9826,4330,272,186.421,57.102,13.315,36.040,36.620,41.204,4.584,295.7,545.4,291.1
2024-01-04T00:09:08,2420,42.8014,5.9826,4330,272,186.377,57.090,13.316,36.042,36.622,41.209,4.587,295.7,545.4,291.0
2024-01-04T00:12:07,2420,42.8014,5.9826,4330,272,186.261,57.055,13.317,36.049,36.629,41.215,4.586,295.8,545.5,291.0
2024-01-04T00:15:08,2420,42.8014,5.9826,4330,272,186.503,57.129,13.316,36.034,36.614,41.202,4.588,295.8,545.4,291.0
2024-01-04T00:18:07,2420,42.8014,5.9826,4330,272,186.521,57.132,13.315,36.034,36.614,41.202,4.588,295.8,545.4,291.1
2024-01-04T00:21:08,2420,42.8014,5.9826,4330,272,186.323,57.072,13.315,36.047,36.627,41.209,4.582,295.7,545.4,291.1
2024-01-04T00:24:07,2420,42.8014,5.9826,4330,272,186.367,57.090,13.319,36.042,36.622,41.211,4.590,295.7,545.4,290.9
2024-01-04T00:27:08,2420,42.8014,5.9826,4330,272,186.302,57.064,13.314,36.048,36.628,41.214,4.586,295.8,545.4,291.1
2024-01-04T00:30:07,2420,42.8014,5.9826,4330,272,186.285,57.064,13.318,36.047,36.627,41.217,4.590,295.7,545.4,291.0
2024-01-04T00:33:07,2420,42.8014,5.9826,4330,272,186.222,57.044,13.317,36.052,36.632,41.220,4.588,295.7,545.4,291.0
2024-01-04T00:36:08,2420,42.8014,5.9826,4330,272,186.408,57.099,13.316,36.040,36.620,41.210,4.590,295.8,545.4,291.0
2024-01-04T00:39:07,2420,42.8014,5.9826,4330,272,186.485,57.124,13.317,36.035,36.615,41.201,4.586,295.6,545.3,291.0
2024-01-04T00:42:08,2420,42.8014,5.9826,4330,272,186.185,57.039,13.322,36.051,36.631,41.218,4.586,295.7,545.4,290.8
2024-01-04T00:45:07,2420,42.8014,5.9826,4330,272,186.320,57.080,13.322,36.043,36.623,41.212,4.590,295.8,545.4,290.8
2024-01-04T00:48:08,2420,42.8014,5.9826,4330,272,186.454,57.124,13.325,36.033,36.613,41.203,4.590,295.7,545.4,290.7
2024-01-04T00:51:07,2420,42.8014,5.9826,4330,272,186.544,57.147,13.321,36.030,36.610,41.200,4.590,295.7,545.3,290.9
2024-01-04T00:54:08,2420,42.8014,5.9826,4330,272,186.449,57.116,13.320,36.036,36.616,41.204,4.588,295.8,545.4,290.9
2024-01-04T00:57:07,2420,42.8014,5.9826,4330,272,186.522,57.140,13.321,36.031,36.611,41.199,4.588,295.7,545.3,290.9
2024-01-04T01:00:08,2420,42.8014,5.9826,4330,272,186.426,57.112,13.321,36.036,36.616,41.203,4.587,295.8,545.4,290.9
2024-01-04T01:03:08,2420,42.8014,5.9826,4330,272,186.325,57.079,13.320,36.044,36.624,41.212,4.588,295.8,545.3,290.9
2024-01-04T01:06:08,2420,42.8014,5.9826,4330,272,186.276,57.059,13.316,36.049,36.629,41.214,4.584,295.7,545.4,291.0
2024-01-04T01:09:08,2420,42.8014,5.9826,4330,272,186.626,57.168,13.318,36.025,36.605,41.196,4.591,295.8,545.4,291.0
2024-01-04T01:12:08,2420,42.8014,5.9826,4330,272,186.243,57.060,13.325,36.047,36.626,41.212,4.585,295.8,545.4,290.7
2024-01-04T01:15:08,2420,42.8014,5.9826,4330,272,186.311,57.076,13.321,36.044,36.624,41.213,4.589,295.8,545.3,290.9
2024-01-04T01:18:07,2420,42.8014,5.9826,4330,272,186.450,57.124,13.326,36.033,36.613,41.204,4.591,295.8,545.4,290.7
2024-01-04T01:21:08,2420,42.8014,5.9826,4330,272,186.378,57.103,13.326,36.037,36.618,41.204,4.587,295.7,545.3,290.7
2024-01-04T01:24:07,2420,42.8014,5.9826,4330,272,186.425,57.113,13.322,36.036,36.616,41.208,4.592,295.7,545.4,290.8
2024-01-04T01:27:08,2420,42.8014,5.9826,4330,272,186.334,57.082,13.320,36.043,36.623,41.212,4.589,295.8,545.4,290.9
2024-01-04T01:30:07,2420,42.8014,5.9826,4330,272,186.336,57.086,13.323,36.042,36.622,41.210,4.588,295.8,545.3,290.8
2024-01-04T01:33:07,2420,42.8014,5.9826,4330,272,186.215,57.044,13.319,36.051,36.631,41.213,4.582,295.8,545.4,290.9
2024-01-04T01:36:08,2420,42.8014,5.9826,4330,272,185.993,56.983,13.325,36.063,36.643,41.228,4.584,295.8,545.4,290.7
2024-01-04T01:39:07,2420,42.8014,5.9826,4330,272,186.198,57.046,13.325,36.050,36.630,41.219,4.590,295.7,545.3,290.7
2024-01-04T01:42:08,2420,42.8014,5.9826,4330,272,186.286,57.067,13.320,36.046,36.626,41.217,4.591,295.8,545.4,290.9
2024-01-04T01:45:07,2420,42.8014,5.9826,4330,272,186.188,57.037,13.320,36.052,36.632,41.215,4.583,295.8,545.3,290.9
2024-01-04T01:48:08,2420,42.8014,5.9826,4330,272,186.356,57.094,13.325,36.040,36.620,41.208,4.588,295.8,545.3,290.7
2024-01-04T01:51:07,2420,42.8014,5.9826,4330,272,186.528,57.144,13.322,36.029,36.610,41.200,4.591,295.8,545.4,290.8
2024-01-04T01:54:08,2420,42.8014,5.9826,4330,272,186.194,57.042,13.323,36.051,36.631,41.214,4.583,295.8,545.3,290.8
2024-01-04T01:57:07,2420,42.8014,5.9826,4330,272,186.668,57.189,13.323,36.020,36.600,41.185,4.585,295.8,545.3,290.8
2024-01-04T02:00:08,2420,42.8014,5.9826,4330,272,186.156,57.030,13.323,36.053,36.633,41.222,4.589,295.8,545.4,290.8
2024-01-04T02:03:08,2420,42.8014,5.9826,4330,272,186.345,57.089,13.323,36.041,36.621,41.207,4.586,295.8,545.4,290.8
2024-01-04T02:06:07,2420,42.8014,5.9826,4330,272,186.130,57.023,13.323,36.055,36.635,41.222,4.587,295.8,545.3,290.8
2024-01-04T02:09:08,2420,42.8014,5.9826,4330,272,186.107,57.015,13.322,36.057,36.637,41.228,4.591,295.8,545.3,290.8
2024-01-04T02:12:07,2420,42.8014,5.9826,4330,272,186.340,57.088,13.324,36.041,36.621,41.211,4.590,295.8,545.3,290.8
2024-01-04T02:15:08,2420,42.8014,5.9826,4330,272,186.174,57.034,13.321,36.053,36.633,41.215,4.582,295.7,545.4,290.9
2024-01-04T02:18:07,2420,42.8014,5.9826,4330,272,186.306,57.073,13.320,36.045,36.625,41.211,4.586,295.9,545.4,290.9
2024-01-04T02:21:08,2420,42.8014,5.9826,4330,272,186.363,57.091,13.321,36.040,36.620,41.205,4.584,295.8,545.3,290.9
2024-01-04T02:24:07,2420,42.8014,5.9826,4330,272,186.366,57.094,13.322,36.040,36.620,41.206,4.586,295.8,545.3,290.8
2024-01-04T02:27:08,2420,42.8014,5.9826,4330,272,186.207,57.043,13.320,36.052,36.632,41.221,4.589,295.9,545.3,290.9
2024-01-04T02:30:07,2420,42.8014,5.9826,4330,272,186.210,57.043,13.320,36.051,36.631,41.221,4.589,295.8,545.4,290.9
2024-01-04T02:33:07,2420,42.8014,5.9826,4330,272,186.070,57.004,13.322,36.059,36.639,41.225,4.586,295.9,545.4,290.8
2024-01-04T02:36:08,2420,42.8014,5.9826,4330,272,186.078,57.005,13.321,36.059,36.639,41.223,4.584,295.9,545.4,290.9
2024-01-04T02:39:07,2420,42.8014,5.9826,4330,272,186.256,57.059,13.321,36.048,36.628,41.215,4.587,295.8,545.3,290.9
2024-01-04T02:42:08,2420,42.8014,5.9826,4330,272,186.340,57.078,13.316,36.045,36.625,41.215,4.590,295.9,545.4,291.0
2024-01-04T02:45:07,2420,42.8014,5.9826,4330,272,186.049,56.988,13.315,36.064,36.644,41.233,4.589,295.9,545.4,291.1
2024-01-04T02:48:08,2420,42.8014,5.9826,4330,272,186.318,57.079,13.322,36.043,36.623,41.210,4.587,295.8,545.4,290.8
2024-01-04T02:51:07,2420,42.8014,5.9826,4330,272,186.353,57.080,13.314,36.045,36.625,41.211,4.586,295.9,545.5,291.1
2024-01-04T02:54:08,2420,42.8014,5.9826,4330,272,186.315,57.070,13.315,36.046,36.626,41.215,4.588,295.8,545.5,291.0
2024-01-04T02:57:07,2420,42.8014,5.9826,4330,272,186.428,57.103,13.314,36.040,36.620,41.208,4.588,295.8,545.4,291.1
2024-01-04T03:00:08,2420,42.8014,5.9826,4330,272,186.417,57.103,13.317,36.039,36.619,41.209,4.590,295.8,545.4,291.0
2024-01-04T03:03:07,2420,42.8014,5.9826,4330,272,186.350,57.081,13.316,36.044,36.624,41.211,4.587,295.7,545.4,291.0
2024-01-04T03:06:08,2420,42.8014,5.9826,4330,272,186.406,57.099,13.317,36.040,36.620,41.208,4.588,295.9,545.4,291.0
2024-01-04T03:09:07,2420,42.8014,5.9826,4330,272,186.260,57.055,13.317,36.050,36.630,41.220,4.590,295.8,545.4,291.0
2024-01-04T03:12:08,2420,42.8014,5.9826,4330,272,186.262,57.055,13.316,36.050,36.630,41.221,4.591,295.8,545.4,291.0
2024-01-04T03:15:07,2420,42.8014,5.9826,4330,272,186.302,57.065,13.315,36.048,36.628,41.217,4.590,295.8,545.5,291.1
2024-01-04T03:18:08,2420,42.8014,5.9826,4330,272,186.286,57.060,13.315,36.049,36.629,41.219,4.590,295.8,545.5,291.1
2024-01-04T03:21:07,2420,42.8014,5.9826,4330,272,186.313,57.067,13.314,36.048,36.628,41.216,4.588,295.8,545.4,291.1
2024-01-04T03:24:08,2420,42.8014,5.9826,4330,272,186.381,57.092,13.316,36.042,36.622,41.211,4.589,295.8,545.5,291.0
2024-01-04T03:27:07,2420,42.8014,5.9826,4330,272,186.419,57.100,13.314,36.041,36.621,41.210,4.589,295.9,545.4,291.1
2024-01-04T03:30:08,2420,42.8014,5.9826,4330,272,186.206,57.050,13.326,36.049,36.629,41.217,4.588,295.8,545.4,290.7
2024-01-04T03:33:08,2420,42.8014,5.9826,4330,272,186.266,57.051,13.312,36.051,36.631,41.217,4.586,295.8,545.4,291.2
2024-01-04T03:36:08,2420,42.8014,5.9826,4330,272,186.194,57.037,13.319,36.053,36.633,41.218,4.585,295.8,545.4,290.9
2024-01-04T03:39:07,2420,42.8014,5.9826,4330,272,186.410,57.100,13.316,36.040,36.620,41.206,4.586,295.8,545.5,291.0
2024-01-04T03:42:08,2420,42.8014,5.9826,4330,272,186.375,57.090,13.317,36.042,36.622,41.209,4.587,295.9,545.4,291.0
2024-01-04T03:45:07,2420,42.8014,5.9826,4330,272,186.298,57.067,13.317,36.047,36.627,41.220,4.593,295.9,545.5,291.0
2024-01-04T03:48:08,2420,42.8014,5.9826,4330,272,186.251,57.053,13.317,36.050,36.630,41.214,4.584,295.8,545.4,291.0
2024-01-04T03:51:07,2420,42.8014,5.9826,4330,272,186.324,57.070,13.313,36.047,36.627,41.212,4.585,295.8,545.4,291.1
2024-01-04T03:54:08,2420,42.8014,5.9826,4330,272,186.379,57.092,13.317,36.041,36.621,41.207,4.586,295.7,545.5,291.0
2024-01-04T03:57:07,2420,42.8014,5.9826,4330,272,186.327,57.070,13.312,36.047,36.627,41.210,4.583,295.8,545.4,291.2
2024-01-04T04:00:07,2420,42.8014,5.9826,4330,272,186.258,57.047,13.311,36.052,36.632,41.218,4.587,295.8,545.5,291.2
2024-01-04T04:03:08,2420,42.8014,5.9826,4330,272,186.271,57.056,13.315,36.050,36.630,41.212,4.582,295.8,545.4,291.1
2024-01-04T04:06:07,2420,42.8014,5.9826,4330,272,186.264,57.050,13.312,36.051,36.631,41.218,4.587,295.9,545.5,291.2
2024-01-04T04:09:08,2420,42.8014,5.9826,4330,272,186.238,57.042,13.312,36.053,36.633,41.218,4.585,295.8,545.5,291.2
2024-01-04T04:12:07,2420,42.8014,5.9826,4330,272,186.424,57.104,13.316,36.039,36.619,41.211,4.591,295.8,545.4,291.0
2024-01-04T04:15:08,2420,42.8014,5.9826,4330,272,186.408,57.097,13.314,36.041,36.621,41.205,4.584,295.9,545.4,291.1
2024-01-04T04:18:07,2420,42.8014,5.9826,4330,272,186.404,57.094,13.313,36.042,36.622,41.208,4.585,295.7,545.4,291.1
2024-01-04T04:21:08,2420,42.8014,5.9826,4330,272,186.271,57.053,13.313,36.050,36.630,41.219,4.588,295.8,545.4,291.1
2024-01-04T04:24:07,2420,42.8014,5.9826,4330,272,186.278,57.052,13.310,36.052,36.632,41.215,4.583,295.8,545.4,291.2
2024-01-04T04:27:08,2420,42.8014,5.9826,4330,272,186.191,57.029,13.313,36.055,36.635,41.220,4.585,295.9,545.5,291.1
2024-01-04T04:30:07,2420,42.8014,5.9826,4330,272,186.369,57.083,13.312,36.044,36.624,41.208,4.584,295.8,545.5,291.1
2024-01-04T04:33:07,2420,42.8014,5.9826,4330,272,186.299,57.060,13.312,36.050,36.630,41.214,4.584,295.8,545.5,291.2
2024-01-04T04:36:08,2420,42.8014,5.9826,4330,272,186.502,57.126,13.314,36.035,36.615,41.203,4.589,295.8,545.4,291.1
2024-01-04T04:39:07,2420,42.8014,5.9826,4330,272,186.492,57.122,13.313,36.036,36.616,41.199,4.583,295.9,545.5,291.1
2024-01-04T04:42:08,2420,42.8014,5.9826,4330,272,186.437,57.101,13.310,36.041,36.621,41.211,4.590,295.8,545.5,291.2
2024-01-04T04:45:07,2420,42.8014,5.9826,4330,272,186.442,57.102,13.310,36.040,36.620,41.210,4.590,295.9,545.5,291.2
2024-01-04T04:48:08,2420,42.8014,5.9826,4330,272,186.122,57.011,13.315,36.059,36.639,41.223,4.583,295.9,545.5,291.1
2024-01-04T04:51:07,2420,42.8014,5.9826,4330,272,186.246,57.041,13.309,36.054,36.634,41.220,4.586,295.8,545.5,291.3
2024-01-04T04:54:08,2420,42.8014,5.9826,4330,272,186.452,57.102,13.307,36.042,36.622,41.213,4.591,295.8,545.5,291.3
2024-01-04T04:57:07,2420,42.8014,5.9826,4330,272,186.356,57.074,13.308,36.047,36.627,41.212,4.585,295.8,545.5,291.3
2024-01-04T05:00:08,2420,42.8014,5.9826,4330,272,186.354,57.076,13.311,36.046,36.626,41.216,4.590,295.8,545.5,291.2
2024-01-04T05:03:08,2420,42.8014,5.9826,4330,272,186.569,57.142,13.311,36.033,36.613,41.202,4.590,295.8,545.5,291.2
2024-01-04T05:06:07,2420,42.8014,5.9826,4330,272,186.482,57.115,13.311,36.038,36.618,41.205,4.587,295.8,545.5,291.2
2024-01-04T05:09:08,2420,42.8014,5.9826,4330,272,186.285,57.055,13.311,36.051,36.631,41.219,4.588,295.8,545.5,291.2
2024-01-04T05:12:07,2420,42.8014,5.9826,4330,272,186.238,57.045,13.314,36.052,36.632,41.217,4.585,295.8,545.5,291.1
2024-01-04T05:15:08,2420,42.8014,5.9826,4330,272,186.569,57.145,13.313,36.031,36.611,41.197,4.586,295.8,545.5,291.1
2024-01-04T05:18:07,2420,42.8014,5.9826,4330,272,186.486,57.125,13.317,36.035,36.615,41.201,4.586,295.8,545.5,291.0
2024-01-04T05:21:08,2420,42.8014,5.9826,4330,272,186.229,57.036,13.310,36.055,36.635,41.219,4.584,295.8,545.4,291.2
2024-01-04T05:24:07,2420,42.8014,5.9826,4330,272,186.404,57.090,13.309,36.044,36.624,41.211,4.587,295.8,545.4,291.2
2024-01-04T05:27:08,2420,42.8014,5.9826,4330,272,186.545,57.131,13.308,36.035,36.615,41.202,4.587,295.8,545.4,291.3
2024-01-04T05:30:07,2420,42.8014,5.9826,4330,272,186.174,57.020,13.310,36.058,36.638,41.231,4.593,295.7,545.4,291.2
2024-01-04T05:33:07,2420,42.8014,5.9826,4330,272,186.537,57.130,13.309,36.036,36.616,41.202,4.586,295.8,545.4,291.3
2024-01-04T05:36:08,2420,42.8014,5.9826,4330,272,186.571,57.141,13.310,36.033,36.613,41.201,4.588,295.8,545.5,291.2
2024-01-04T05:39:07,2420,42.8014,5.9826,4330,272,186.536,57.129,13.309,36.036,36.616,41.205,4.589,295.8,545.5,291.3
2024-01-04T05:42:08,2420,42.8014,5.9826,4330,272,186.428,57.096,13.308,36.042,36.622,41.212,4.589,295.7,545.4,291.3
2024-01-04T05:45:07,2420,42.8014,5.9826,4330,272,186.462,57.107,13.309,36.040,36.620,41.207,4.588,295.8,545.4,291.2
2024-01-04T05:48:08,2420,42.8014,5.9826,4330,272,186.580,57.145,13.310,36.032,36.612,41.202,4.590,295.8,545.5,291.2
2024-01-04T05:51:07,2420,42.8014,5.9826,4330,272,186.356,57.076,13.311,36.047,36.627,41.212,4.585,295.8,545.4,291.2
2024-01-04T05:54:08,2420,42.8014,5.9826,4330,272,186.628,57.159,13.310,36.029,36.609,41.196,4.588,295.8,545.5,291.2
2024-01-04T05:57:07,2420,42.8014,5.9826,4330,272,186.480,57.114,13.310,36.038,36.618,41.205,4.586,295.7,545.5,291.2
2024-01-04T06:00:08,2420,42.8014,5.9826,4330,272,186.370,57.079,13.309,36.046,36.626,41.209,4.583,295.8,545.5,291.3
2024-01-04T06:03:08,2420,42.8014,5.9826,4330,272,186.474,57.112,13.310,36.039,36.619,41.207,4.588,295.7,545.3,291.2
2024-01-04T06:06:08,2420,42.8014,5.9826,4330,272,186.286,57.058,13.313,36.049,36.629,41.218,4.588,295.8,545.4,291.1
2024-01-04T06:09:07,2420,42.8014,5.9826,4330,272,186.461,57.107,13.309,36.040,36.620,41.206,4.586,295.7,545.4,291.3
2024-01-04T06:12:08,2420,42.8014,5.9826,4330,272,186.569,57.141,13.310,36.033,36.613,41.199,4.586,295.8,545.5,291.2
2024-01-04T06:15:07,2420,42.8014,5.9826,4330,272,186.684,57.179,13.312,36.024,36.604,41.195,4.591,295.7,545.5,291.2
2024-01-04T06:18:08,2420,42.8014,5.9826,4330,272,186.403,57.087,13.308,36.045,36.625,41.212,4.588,295.8,545.5,291.3
2024-01-04T06:21:07,2420,42.8014,5.9826,4330,272,186.407,57.091,13.310,36.043,36.623,41.210,4.587,295.8,545.5,291.2
2024-01-04T06:24:08,2420,42.8014,5.9826,4330,272,186.239,57.043,13.313,36.053,36.633,41.221,4.588,295.8,545.5,291.1
2024-01-04T06:27:07,2420,42.8014,5.9826,4330,272,186.605,57.151,13.309,36.031,36.611,41.200,4.589,295.9,545.4,291.3
2024-01-04T06:30:08,2420,42.8014,5.9826,4330,272,186.520,57.126,13.310,36.036,36.616,41.205,4.589,295.8,545.5,291.2
2024-01-04T06:33:08,2420,42.8014,5.9826,4330,272,186.589,57.146,13.309,36.032,36.612,41.200,4.588,295.8,545.5,291.3
2024-01-04T06:36:07,2420,42.8014,5.9826,4330,272,186.345,57.070,13.308,36.048,36.628,41.215,4.586,295.8,545.5,291.3
2024-01-04T06:39:08,2420,42.8014,5.9826,4330,272,186.616,57.161,13.314,36.028,36.608,41.200,4.592,295.7,545.5,291.1
2024-01-04T06:42:07,2420,42.8014,5.9826,4330,272,186.427,57.100,13.312,36.041,36.621,41.210,4.588,295.8,545.4,291.2
2024-01-04T06:45:08,2420,42.8014,5.9826,4330,272,186.652,57.168,13.311,36.027,36.607,41.197,4.590,295.7,545.5,291.2
2024-01-04T06:48:07,2420,42.8014,5.9826,4330,272,186.477,57.113,13.310,36.038,36.618,41.205,4.587,295.7,545.5,291.2
2024-01-04T06:51:08,2420,42.8014,5.9826,4330,272,186.350,57.077,13.312,36.046,36.626,41.214,4.588,295.7,545.5,291.2
2024-01-04T06:54:07,2420,42.8014,5.9826,4330,272,186.434,57.099,13.310,36.042,36.622,41.211,4.589,295.7,545.5,291.2
2024-01-04T06:57:08,2420,42.8014,5.9826,4330,272,186.453,57.104,13.309,36.040,36.620,41.211,4.591,295.7,545.5,291.3
2024-01-04T07:00:07,2420,42.8014,5.9826,4330,272,186.525,57.129,13.312,36.035,36.615,41.204,4.589,295.8,545.5,291.2
2024-01-04T07:03:08,2420,42.8014,5.9826,4330,272,186.431,57.096,13.308,36.042,36.622,41.207,4.585,295.7,545.5,291.3
2024-01-04T07:06:07,2420,42.8014,5.9826,4330,272,186.804,57.213,13.310,36.018,36.598,41.188,4.591,295.7,545.5,291.2
2024-01-04T07:09:08,2420,42.8014,5.9826,4330,272,186.573,57.142,13.310,36.032,36.613,41.197,4.585,295.7,545.5,291.2
2024-01-04T07:12:07,2420,42.8014,5.9826,4330,272,186.574,57.140,13.308,36.034,36.614,41.201,4.588,295.8,545.4,291.3
2024-01-04T07:15:08,2420,42.8014,5.9826,4330,272,186.536,57.131,13.310,36.034,36.614,41.203,4.588,295.9,545.4,291.2
2024-01-04T07:18:07,2420,42.8014,5.9826,4330,272,186.307,57.062,13.311,36.049,36.629,41.215,4.586,295.7,545.5,291.2
2024-01-04T07:21:08,2420,42.8014,5.9826,4330,272,186.507,57.119,13.308,36.038,36.618,41.200,4.582,295.8,545.5,291.3
2024-01-04T07:24:07,2420,42.8014,5.9826,4330,272,186.495,57.118,13.309,36.038,36.618,41.206,4.588,295.7,545.5,291.2
2024-01-04T07:27:08,2420,42.8014,5.9826,4330,272,186.330,57.070,13.312,36.047,36.627,41.212,4.584,295.8,545.5,291.2
2024-01-04T07:30:07,2420,42.8014,5.9826,4330,272,186.438,57.100,13.310,36.042,36.622,41.208,4.587,295.8,545.5,291.2
2024-01-04T07:33:08,2420,42.8014,5.9826,4330,272,186.462,57.111,13.313,36.039,36.619,41.207,4.588,295.8,545.4,291.1
2024-01-04T07:36:07,2420,42.8014,5.9826,4330,272,186.770,57.206,13.313,36.019,36.599,41.194,4.595,295.8,545.5,291.1
2024-01-04T07:39:08,2420,42.8014,5.9826,4330,272,186.353,57.075,13.310,36.047,36.627,41.218,4.591,295.8,545.5,291.2
2024-01-04T07:42:07,2420,42.8014,5.9826,4330,272,186.414,57.096,13.312,36.042,36.622,41.206,4.584,295.7,545.4,291.2
2024-01-04T07:45:08,2420,42.8014,5.9826,4330,272,186.382,57.083,13.310,36.045,36.625,41.207,4.583,295.8,545.5,291.2
2024-01-04T07:48:07,2420,42.8014,5.9826,4330,272,186.452,57.105,13.310,36.040,36.620,41.205,4.585,295.7,545.5,291.2
2024-01-04T07:51:08,2420,42.8014,5.9826,4330,272,186.308,57.062,13.311,36.049,36.629,41.212,4.583,295.7,545.4,291.2
2024-01-04T07:54:07,2420,42.8014,5.9826,4330,272,186.437,57.101,13.310,36.042,36.622,41.214,4.592,295.8,545.5,291.2
2024-01-04T07:57:08,2420,42.8014,5.9826,4330,272,186.754,57.194,13.307,36.022,36.602,41.191,4.589,295.7,545.5,291.3
2024-01-04T08:00:07,2420,42.8014,5.9826,4330,272,186.605,57.149,13.307,36.031,36.611,41.197,4.585,295.8,545.5,291.3
2024-01-04T08:03:08,2420,42.8014,5.9826,4330,272,186.390,57.083,13.308,36.045,36.625,41.211,4.586,295.8,545.6,291.3
2024-01-04T08:06:08,2420,42.8014,5.9826,4330,272,186.416,57.091,13.307,36.044,36.624,41.208,4.584,295.7,545.5,291.3
2024-01-04T08:09:07,2420,42.8014,5.9826,4330,272,186.446,57.101,13.308,36.042,36.622,41.208,4.586,295.8,545.4,291.3
2024-01-04T08:12:08,2420,42.8014,5.9826,4330,272,186.460,57.106,13.309,36.040,36.620,41.203,4.582,295.7,545.5,291.3
2024-01-04T08:15:07,2420,42.8014,5.9826,4330,272,186.941,57.252,13.307,36.010,36.590,41.183,4.593,295.7,545.5,291.3
2024-01-04T08:18:08,2420,42.8014,5.9826,4330,272,186.216,57.031,13.308,36.056,36.636,41.218,4.582,295.7,545.5,291.3
2024-01-04T08:21:07,2420,42.8014,5.9826,4330,272,186.514,57.120,13.307,36.038,36.618,41.205,4.588,295.8,545.5,291.3
2024-01-04T08:24:08,2420,42.8014,5.9826,4330,272,186.546,57.129,13.306,36.036,36.616,41.205,4.589,295.7,545.4,291.3
2024-01-04T08:27:07,2420,42.8014,5.9826,4330,272,186.738,57.188,13.306,36.024,36.604,41.193,4.589,295.7,545.5,291.3
2024-01-04T08:30:08,2420,42.8014,5.9826,4330,272,186.491,57.115,13.308,36.038,36.618,41.204,4.586,295.7,545.5,291.3
2024-01-04T08:33:08,2420,42.8014,5.9826,4330,272,186.553,57.131,13.306,36.036,36.616,41.206,4.590,295.7,545.6,291.4
2024-01-04T08:36:07,2420,42.8014,5.9826,4330,272,186.803,57.207,13.306,36.019,36.600,41.191,4.591,295.8,545.5,291.4
2024-01-04T08:39:08,2420,42.8014,5.9826,4330,272,186.539,57.127,13.306,36.037,36.617,41.200,4.583,295.8,545.5,291.4
2024-01-04T08:42:07,2420,42.8014,5.9826,4330,272,186.541,57.127,13.306,36.037,36.617,41.205,4.588,295.7,545.4,291.4
2024-01-04T08:45:08,2420,42.8014,5.9826,4330,272,186.559,57.133,13.306,36.036,36.616,41.203,4.587,295.7,545.5,291.4
2024-01-04T08:48:07,2420,42.8014,5.9826,4330,272,186.540,57.125,13.305,36.037,36.617,41.206,4.589,295.7,545.5,291.4
2024-01-04T08:51:08,2420,42.8014,5.9826,4330,272,186.569,57.135,13.306,36.035,36.615,41.206,4.592,295.7,545.5,291.4
2024-01-04T08:54:07,2420,42.8014,5.9826,4330,272,186.632,57.159,13.309,36.029,36.609,41.198,4.588,295.8,545.5,291.2
2024-01-04T08:57:08,2420,42.8014,5.9826,4330,272,186.613,57.152,13.308,36.030,36.611,41.206,4.596,295.8,545.4,291.3
2024-01-04T09:00:07,2420,42.8014,5.9826,4330,272,186.571,57.137,13.307,36.034,36.614,41.204,4.590,295.7,545.5,291.3
2024-01-04T09:03:08,2420,42.8014,5.9826,4330,272,186.543,57.130,13.307,36.036,36.616,41.202,4.586,295.7,545.5,291.3
2024-01-04T09:06:08,2420,42.8014,5.9826,4330,272,186.598,57.145,13.306,36.033,36.613,41.202,4.590,295.8,545.5,291.4
2024-01-04T09:09:07,2420,42.8014,5.9826,4330,272,186.610,57.147,13.305,36.033,36.613,41.203,4.590,295.7,545.5,291.4
2024-01-04T09:12:08,2420,42.8014,5.9826,4330,272,186.447,57.099,13.307,36.043,36.623,41.207,4.584,295.7,545.5,291.3
2024-01-04T09:15:07,2420,42.8014,5.9826,4330,272,186.346,57.067,13.306,36.050,36.630,41.217,4.588,295.8,545.5,291.4
2024-01-04T09:18:08,2420,42.8014,5.9826,4330,272,186.574,57.138,13.307,36.034,36.614,41.195,4.581,295.7,545.5,291.3
2024-01-04T09:21:07,2420,42.8014,5.9826,4330,272,186.528,57.123,13.306,36.037,36.617,41.210,4.592,295.7,545.5,291.3
2024-01-04T09:24:08,2420,42.8014,5.9826,4330,272,186.875,57.230,13.307,36.014,36.595,41.184,4.589,295.7,545.5,291.3
2024-01-04T09:27:07,2420,42.8014,5.9826,4330,272,186.676,57.169,13.306,36.028,36.608,41.188,4.580,295.7,545.5,291.4
2024-01-04T09:30:07,2420,42.8014,5.9826,4330,272,186.578,57.139,13.306,36.034,36.614,41.198,4.584,295.7,545.5,291.4
2024-01-04T09:33:08,2420,42.8014,5.9826,4330,272,186.508,57.115,13.304,36.039,36.619,41.205,4.586,295.7,545.5,291.4
2024-01-04T09:36:07,2420,42.8014,5.9826,4330,272,186.569,57.135,13.305,36.035,36.615,41.201,4.585,295.7,545.5,291.4
2024-01-04T09:39:08,2420,42.8014,5.9826,4330,272,186.461,57.102,13.305,36.042,36.622,41.207,4.585,295.8,545.6,291.4
2024-01-04T09:42:07,2420,42.8014,5.9826,4330,272,186.637,57.157,13.306,36.030,36.610,41.199,4.588,295.8,545.5,291.3
2024-01-04T09:45:07,2420,42.8014,5.9826,4330,272,186.690,57.171,13.305,36.027,36.607,41.196,4.588,295.7,545.6,291.4
2024-01-04T09:48:07,2420,42.8014,5.9826,4330,272,186.800,57.206,13.306,36.020,36.600,41.188,4.588,295.7,545.6,291.4
2024-01-04T09:51:07,2420,42.8014,5.9826,4330,272,186.602,57.147,13.307,36.033,36.613,41.200,4.588,295.8,545.5,291.3
2024-01-04T09:54:07,2420,42.8014,5.9826,4330,272,186.464,57.104,13.307,36.041,36.621,41.209,4.587,295.7,545.5,291.3
2024-01-04T09:57:07,2420,42.8014,5.9826,4330,272,186.604,57.146,13.306,36.033,36.613,41.200,4.588,295.7,545.5,291.4
2024-01-04T10:00:07,2420,42.8014,5.9826,4330,272,186.512,57.118,13.306,36.038,36.618,41.206,4.587,295.8,545.5,291.4